Year,Month,Day,Hour,Minute,Value (Times are PST for windgust in km/hr)
2017,05,23,00,00,4.80
2017,05,23,00,01,4.80
2017,05,23,00,02,4.80
2017,05,23,00,03,4.80
2017,05,23,00,04,4.80
2017,05,23,00,05,4.80
2017,05,23,00,06,4.80
2017,05,23,00,07,6.40
2017,05,23,00,08,6.40
2017,05,23,00,09,6.40
2017,05,23,00,10,6.40
2017,05,23,00,11,8.10
2017,05,23,00,12,6.40
2017,05,23,00,13,8.10
2017,05,23,00,14,8.10
2017,05,23,00,15,6.40
2017,05,23,00,16,4.80
2017,05,23,00,17,4.80
2017,05,23,00,18,8.10
2017,05,23,00,19,6.40
2017,05,23,00,20,6.40
2017,05,23,00,21,6.40
2017,05,23,00,22,9.60
2017,05,23,00,23,6.40
2017,05,23,00,24,8.10
2017,05,23,00,25,8.10
2017,05,23,00,26,6.40
2017,05,23,00,27,6.40
2017,05,23,00,28,6.40
2017,05,23,00,29,6.40
2017,05,23,00,30,6.40
2017,05,23,00,31,8.10
2017,05,23,00,32,6.40
2017,05,23,00,33,6.40
2017,05,23,00,34,8.10
2017,05,23,00,35,6.40
2017,05,23,00,36,8.10
2017,05,23,00,37,6.40
2017,05,23,00,38,8.10
2017,05,23,00,39,6.40
2017,05,23,00,40,6.40
2017,05,23,00,41,6.40
2017,05,23,00,42,6.40
2017,05,23,00,43,6.40
2017,05,23,00,44,6.40
2017,05,23,00,45,6.40
2017,05,23,00,46,6.40
2017,05,23,00,47,4.80
2017,05,23,00,48,4.80
2017,05,23,00,49,6.40
2017,05,23,00,50,6.40
2017,05,23,00,51,4.80
2017,05,23,00,52,6.40
2017,05,23,00,53,8.10
2017,05,23,00,54,6.40
2017,05,23,00,55,6.40
2017,05,23,00,56,6.40
2017,05,23,00,57,6.40
2017,05,23,00,58,4.80
2017,05,23,00,59,6.40
2017,05,23,01,00,6.40
2017,05,23,01,01,8.10
2017,05,23,01,02,6.40
2017,05,23,01,03,6.40
2017,05,23,01,04,6.40
2017,05,23,01,05,6.40
2017,05,23,01,06,6.40
2017,05,23,01,07,6.40
2017,05,23,01,08,6.40
2017,05,23,01,09,6.40
2017,05,23,01,10,6.40
2017,05,23,01,11,4.80
2017,05,23,01,12,4.80
2017,05,23,01,13,8.10
2017,05,23,01,14,6.40
2017,05,23,01,15,6.40
2017,05,23,01,16,4.80
2017,05,23,01,17,4.80
2017,05,23,01,18,4.80
2017,05,23,01,19,6.40
2017,05,23,01,20,6.40
2017,05,23,01,21,4.80
2017,05,23,01,22,4.80
2017,05,23,01,23,6.40
2017,05,23,01,24,6.40
2017,05,23,01,25,6.40
2017,05,23,01,26,4.80
2017,05,23,01,27,4.80
2017,05,23,01,28,4.80
2017,05,23,01,29,4.80
2017,05,23,01,30,4.80
2017,05,23,01,31,6.40
2017,05,23,01,32,6.40
2017,05,23,01,33,6.40
2017,05,23,01,34,6.40
2017,05,23,01,35,4.80
2017,05,23,01,36,4.80
2017,05,23,01,37,4.80
2017,05,23,01,38,6.40
2017,05,23,01,39,4.80
2017,05,23,01,40,6.40
2017,05,23,01,41,4.80
2017,05,23,01,42,4.80
2017,05,23,01,43,3.20
2017,05,23,01,44,3.20
2017,05,23,01,45,3.20
2017,05,23,01,46,3.20
2017,05,23,01,47,3.20
2017,05,23,01,48,3.20
2017,05,23,01,49,3.20
2017,05,23,01,50,3.20
2017,05,23,01,51,3.20
2017,05,23,01,52,3.20
2017,05,23,01,53,3.20
2017,05,23,01,54,3.20
2017,05,23,01,55,3.20
2017,05,23,01,56,4.80
2017,05,23,01,57,3.20
2017,05,23,01,58,4.80
2017,05,23,01,59,4.80
2017,05,23,02,00,3.20
2017,05,23,02,01,3.20
2017,05,23,02,02,3.20
2017,05,23,02,03,3.20
2017,05,23,02,04,3.20
2017,05,23,02,05,3.20
2017,05,23,02,06,3.20
2017,05,23,02,07,3.20
2017,05,23,02,08,3.20
2017,05,23,02,09,4.80
2017,05,23,02,10,4.80
2017,05,23,02,11,6.40
2017,05,23,02,12,6.40
2017,05,23,02,13,6.40
2017,05,23,02,14,6.40
2017,05,23,02,15,6.40
2017,05,23,02,16,6.40
2017,05,23,02,17,6.40
2017,05,23,02,18,6.40
2017,05,23,02,19,6.40
2017,05,23,02,20,6.40
2017,05,23,02,21,6.40
2017,05,23,02,22,6.40
2017,05,23,02,23,6.40
2017,05,23,02,24,6.40
2017,05,23,02,25,8.10
2017,05,23,02,26,8.10
2017,05,23,02,27,8.10
2017,05,23,02,28,11.30
2017,05,23,02,29,11.30
2017,05,23,02,30,9.60
2017,05,23,02,31,9.60
2017,05,23,02,32,8.10
2017,05,23,02,33,6.40
2017,05,23,02,34,6.40
2017,05,23,02,35,6.40
2017,05,23,02,36,6.40
2017,05,23,02,37,6.40
2017,05,23,02,38,4.80
2017,05,23,02,39,4.80
2017,05,23,02,40,4.80
2017,05,23,02,41,3.20
2017,05,23,02,42,3.20
2017,05,23,02,43,3.20
2017,05,23,02,44,4.80
2017,05,23,02,45,4.80
2017,05,23,02,46,6.40
2017,05,23,02,47,8.10
2017,05,23,02,48,9.60
2017,05,23,02,49,6.40
2017,05,23,02,50,4.80
2017,05,23,02,51,6.40
2017,05,23,02,52,8.10
2017,05,23,02,53,6.40
2017,05,23,02,54,6.40
2017,05,23,02,55,4.80
2017,05,23,02,56,4.80
2017,05,23,02,57,4.80
2017,05,23,02,58,6.40
2017,05,23,02,59,6.40
2017,05,23,03,00,6.40
2017,05,23,03,01,8.10
2017,05,23,03,02,9.60
2017,05,23,03,03,8.10
2017,05,23,03,04,8.10
2017,05,23,03,05,6.40
2017,05,23,03,06,8.10
2017,05,23,03,07,6.40
2017,05,23,03,08,6.40
2017,05,23,03,09,8.10
2017,05,23,03,10,4.80
2017,05,23,03,11,4.80
2017,05,23,03,12,4.80
2017,05,23,03,13,4.80
2017,05,23,03,14,4.80
2017,05,23,03,15,4.80
2017,05,23,03,16,4.80
2017,05,23,03,17,4.80
2017,05,23,03,18,4.80
2017,05,23,03,19,3.20
2017,05,23,03,20,3.20
2017,05,23,03,21,4.80
2017,05,23,03,22,4.80
2017,05,23,03,23,3.20
2017,05,23,03,24,3.20
2017,05,23,03,25,3.20
2017,05,23,03,26,3.20
2017,05,23,03,27,4.80
2017,05,23,03,28,4.80
2017,05,23,03,29,4.80
2017,05,23,03,30,4.80
2017,05,23,03,31,3.20
2017,05,23,03,32,6.40
2017,05,23,03,33,6.40
2017,05,23,03,34,6.40
2017,05,23,03,35,6.40
2017,05,23,03,36,6.40
2017,05,23,03,37,6.40
2017,05,23,03,38,4.80
2017,05,23,03,39,8.10
2017,05,23,03,40,6.40
2017,05,23,03,41,4.80
2017,05,23,03,42,4.80
2017,05,23,03,43,6.40
2017,05,23,03,44,6.40
2017,05,23,03,45,8.10
2017,05,23,03,46,6.40
2017,05,23,03,47,9.60
2017,05,23,03,48,9.60
2017,05,23,03,49,8.10
2017,05,23,03,50,11.30
2017,05,23,03,51,11.30
2017,05,23,03,52,8.10
2017,05,23,03,53,9.60
2017,05,23,03,54,6.40
2017,05,23,03,55,9.60
2017,05,23,03,56,8.10
2017,05,23,03,57,8.10
2017,05,23,03,58,8.10
2017,05,23,03,59,8.10
2017,05,23,04,00,9.60
2017,05,23,04,01,6.40
2017,05,23,04,02,8.10
2017,05,23,04,03,6.40
2017,05,23,04,04,6.40
2017,05,23,04,05,8.10
2017,05,23,04,06,6.40
2017,05,23,04,07,8.10
2017,05,23,04,08,9.60
2017,05,23,04,09,8.10
2017,05,23,04,10,6.40
2017,05,23,04,11,11.30
2017,05,23,04,12,8.10
2017,05,23,04,13,6.40
2017,05,23,04,14,8.10
2017,05,23,04,15,6.40
2017,05,23,04,16,6.40
2017,05,23,04,17,8.10
2017,05,23,04,18,8.10
2017,05,23,04,19,8.10
2017,05,23,04,20,6.40
2017,05,23,04,21,6.40
2017,05,23,04,22,6.40
2017,05,23,04,23,4.80
2017,05,23,04,24,6.40
2017,05,23,04,25,6.40
2017,05,23,04,26,4.80
2017,05,23,04,27,3.20
2017,05,23,04,28,4.80
2017,05,23,04,29,4.80
2017,05,23,04,30,3.20
2017,05,23,04,31,3.20
2017,05,23,04,32,3.20
2017,05,23,04,33,3.20
2017,05,23,04,34,3.20
2017,05,23,04,35,1.60
2017,05,23,04,36,3.20
2017,05,23,04,37,3.20
2017,05,23,04,38,3.20
2017,05,23,04,39,3.20
2017,05,23,04,40,1.60
2017,05,23,04,47,3.20
2017,05,23,04,48,3.20
2017,05,23,04,49,3.20
2017,05,23,04,50,1.60
2017,05,23,04,51,1.60
2017,05,23,04,58,3.20
2017,05,23,04,59,3.20
2017,05,23,05,00,3.20
2017,05,23,05,01,3.20
2017,05,23,05,02,3.20
2017,05,23,05,03,4.80
2017,05,23,05,04,3.20
2017,05,23,05,05,3.20
2017,05,23,05,06,3.20
2017,05,23,05,07,3.20
2017,05,23,05,08,3.20
2017,05,23,05,09,3.20
2017,05,23,05,10,3.20
2017,05,23,05,11,3.20
2017,05,23,05,12,3.20
2017,05,23,05,13,3.20
2017,05,23,05,14,3.20
2017,05,23,05,15,3.20
2017,05,23,05,16,4.80
2017,05,23,05,17,3.20
2017,05,23,05,18,3.20
2017,05,23,05,19,3.20
2017,05,23,05,20,3.20
2017,05,23,05,21,3.20
2017,05,23,05,22,3.20
2017,05,23,05,23,3.20
2017,05,23,05,24,3.20
2017,05,23,05,25,3.20
2017,05,23,05,26,3.20
2017,05,23,05,27,4.80
2017,05,23,05,28,4.80
2017,05,23,05,29,6.40
2017,05,23,05,30,6.40
2017,05,23,05,31,6.40
2017,05,23,05,32,6.40
2017,05,23,05,33,4.80
2017,05,23,05,34,4.80
2017,05,23,05,35,4.80
2017,05,23,05,36,4.80
2017,05,23,05,37,6.40
2017,05,23,05,38,6.40
2017,05,23,05,39,6.40
2017,05,23,05,40,6.40
2017,05,23,05,41,6.40
2017,05,23,05,42,6.40
2017,05,23,05,43,6.40
2017,05,23,05,44,6.40
2017,05,23,05,45,4.80
2017,05,23,05,46,6.40
2017,05,23,05,47,4.80
2017,05,23,05,48,6.40
2017,05,23,05,49,6.40
2017,05,23,05,50,6.40
2017,05,23,05,51,6.40
2017,05,23,05,52,6.40
2017,05,23,05,53,6.40
2017,05,23,05,54,4.80
2017,05,23,05,55,4.80
2017,05,23,05,56,4.80
2017,05,23,05,57,3.20
2017,05,23,05,58,3.20
2017,05,23,05,59,3.20
2017,05,23,06,00,3.20
2017,05,23,06,01,4.80
2017,05,23,06,02,4.80
2017,05,23,06,03,4.80
2017,05,23,06,04,4.80
2017,05,23,06,05,6.40
2017,05,23,06,06,6.40
2017,05,23,06,07,6.40
2017,05,23,06,08,6.40
2017,05,23,06,09,4.80
2017,05,23,06,10,4.80
2017,05,23,06,11,4.80
2017,05,23,06,12,4.80
2017,05,23,06,13,4.80
2017,05,23,06,14,6.40
2017,05,23,06,15,4.80
2017,05,23,06,16,4.80
2017,05,23,06,17,4.80
2017,05,23,06,18,6.40
2017,05,23,06,19,6.40
2017,05,23,06,20,6.40
2017,05,23,06,21,6.40
2017,05,23,06,22,6.40
2017,05,23,06,23,6.40
2017,05,23,06,24,6.40
2017,05,23,06,25,6.40
2017,05,23,06,26,6.40
2017,05,23,06,27,6.40
2017,05,23,06,28,4.80
2017,05,23,06,29,6.40
2017,05,23,06,30,4.80
2017,05,23,06,31,4.80
2017,05,23,06,32,4.80
2017,05,23,06,33,6.40
2017,05,23,06,34,6.40
2017,05,23,06,35,6.40
2017,05,23,06,36,4.80
2017,05,23,06,37,4.80
2017,05,23,06,38,4.80
2017,05,23,06,39,4.80
2017,05,23,06,40,4.80
2017,05,23,06,41,4.80
2017,05,23,06,42,3.20
2017,05,23,06,43,3.20
2017,05,23,06,44,3.20
2017,05,23,06,45,3.20
2017,05,23,06,46,3.20
2017,05,23,06,47,3.20
2017,05,23,06,48,3.20
2017,05,23,06,49,3.20
2017,05,23,06,50,1.60
2017,05,23,06,57,3.20
2017,05,23,06,58,4.80
2017,05,23,06,59,4.80
2017,05,23,07,00,4.80
2017,05,23,07,01,6.40
2017,05,23,07,02,6.40
2017,05,23,07,03,4.80
2017,05,23,07,04,4.80
2017,05,23,07,05,3.20
2017,05,23,07,06,3.20
2017,05,23,07,07,1.60
2017,05,23,07,08,1.60
2017,05,23,07,10,1.60
2017,05,23,07,20,1.60
2017,05,23,07,21,3.20
2017,05,23,07,22,1.60
2017,05,23,07,24,3.20
2017,05,23,07,25,3.20
2017,05,23,07,26,4.80
2017,05,23,07,27,4.80
2017,05,23,07,28,4.80
2017,05,23,07,29,6.40
2017,05,23,07,30,8.10
2017,05,23,07,31,8.10
2017,05,23,07,32,11.30
2017,05,23,07,33,11.30
2017,05,23,07,34,14.50
2017,05,23,07,35,11.30
2017,05,23,07,36,9.60
2017,05,23,07,37,8.10
2017,05,23,07,38,8.10
2017,05,23,07,39,8.10
2017,05,23,07,40,6.40
2017,05,23,07,41,6.40
2017,05,23,07,42,6.40
2017,05,23,07,43,8.10
2017,05,23,07,44,9.60
2017,05,23,07,45,9.60
2017,05,23,07,46,14.50
2017,05,23,07,47,11.30
2017,05,23,07,48,11.30
2017,05,23,07,49,11.30
2017,05,23,07,50,11.30
2017,05,23,07,51,8.10
2017,05,23,07,52,8.10
2017,05,23,07,53,9.60
2017,05,23,07,54,4.80
2017,05,23,07,55,8.10
2017,05,23,07,56,8.10
2017,05,23,07,57,4.80
2017,05,23,07,58,11.30
2017,05,23,07,59,14.50
2017,05,23,08,00,14.50
2017,05,23,08,01,14.50
2017,05,23,08,02,19.30
2017,05,23,08,03,16.10
2017,05,23,08,04,16.10
2017,05,23,08,05,16.10
2017,05,23,08,06,12.90
2017,05,23,08,07,16.10
2017,05,23,08,08,17.70
2017,05,23,08,09,17.70
2017,05,23,08,10,17.70
2017,05,23,08,11,16.10
2017,05,23,08,12,16.10
2017,05,23,08,13,14.50
2017,05,23,08,14,11.30
2017,05,23,08,15,16.10
2017,05,23,08,16,14.50
2017,05,23,08,17,16.10
2017,05,23,08,18,9.60
2017,05,23,08,19,14.50
2017,05,23,08,20,16.10
2017,05,23,08,21,16.10
2017,05,23,08,22,11.30
2017,05,23,08,23,16.10
2017,05,23,08,24,17.70
2017,05,23,08,25,14.50
2017,05,23,08,26,12.90
2017,05,23,08,27,17.70
2017,05,23,08,28,16.10
2017,05,23,08,29,22.50
2017,05,23,08,30,14.50
2017,05,23,08,31,12.90
2017,05,23,08,32,11.30
2017,05,23,08,33,14.50
2017,05,23,08,34,12.90
2017,05,23,08,35,11.30
2017,05,23,08,36,16.10
2017,05,23,08,37,11.30
2017,05,23,08,38,9.60
2017,05,23,08,39,8.10
2017,05,23,08,40,6.40
2017,05,23,08,41,9.60
2017,05,23,08,42,11.30
2017,05,23,08,43,11.30
2017,05,23,08,44,8.10
2017,05,23,08,45,8.10
2017,05,23,08,46,8.10
2017,05,23,08,47,8.10
2017,05,23,08,48,8.10
2017,05,23,08,49,8.10
2017,05,23,08,50,6.40
2017,05,23,08,51,4.80
2017,05,23,08,52,3.20
2017,05,23,08,53,4.80
2017,05,23,08,54,6.40
2017,05,23,08,55,8.10
2017,05,23,08,56,6.40
2017,05,23,08,57,4.80
2017,05,23,08,58,8.10
2017,05,23,08,59,6.40
2017,05,23,09,00,3.20
2017,05,23,09,01,3.20
2017,05,23,09,02,4.80
2017,05,23,09,03,4.80
2017,05,23,09,04,4.80
2017,05,23,09,05,6.40
2017,05,23,09,06,6.40
2017,05,23,09,07,8.10
2017,05,23,09,08,3.20
2017,05,23,09,09,3.20
2017,05,23,09,10,6.40
2017,05,23,09,11,4.80
2017,05,23,09,12,8.10
2017,05,23,09,13,4.80
2017,05,23,09,14,11.30
2017,05,23,09,15,11.30
2017,05,23,09,16,4.80
2017,05,23,09,17,9.60
2017,05,23,09,18,8.10
2017,05,23,09,19,11.30
2017,05,23,09,20,8.10
2017,05,23,09,21,9.60
2017,05,23,09,22,9.60
2017,05,23,09,23,14.50
2017,05,23,09,24,11.30
2017,05,23,09,25,9.60
2017,05,23,09,26,8.10
2017,05,23,09,27,9.60
2017,05,23,09,28,6.40
2017,05,23,09,29,9.60
2017,05,23,09,30,8.10
2017,05,23,09,31,6.40
2017,05,23,09,32,8.10
2017,05,23,09,33,11.30
2017,05,23,09,34,8.10
2017,05,23,09,35,4.80
2017,05,23,09,36,6.40
2017,05,23,09,37,8.10
2017,05,23,09,38,8.10
2017,05,23,09,39,6.40
2017,05,23,09,40,6.40
2017,05,23,09,41,4.80
2017,05,23,09,42,11.30
2017,05,23,09,43,11.30
2017,05,23,09,44,4.80
2017,05,23,09,45,6.40
2017,05,23,09,46,9.60
2017,05,23,09,47,11.30
2017,05,23,09,48,11.30
2017,05,23,09,49,12.90
2017,05,23,09,50,9.60
2017,05,23,09,51,8.10
2017,05,23,09,52,14.50
2017,05,23,09,53,6.40
2017,05,23,09,54,8.10
2017,05,23,09,55,9.60
2017,05,23,09,56,16.10
2017,05,23,09,57,14.50
2017,05,23,09,58,16.10
2017,05,23,09,59,11.30
2017,05,23,10,00,14.50
2017,05,23,10,01,14.50
2017,05,23,10,02,16.10
2017,05,23,10,03,8.10
2017,05,23,10,04,11.30
2017,05,23,10,05,14.50
2017,05,23,10,06,14.50
2017,05,23,10,07,11.30
2017,05,23,10,08,9.60
2017,05,23,10,09,11.30
2017,05,23,10,10,16.10
2017,05,23,10,11,12.90
2017,05,23,10,12,11.30
2017,05,23,10,13,12.90
2017,05,23,10,14,11.30
2017,05,23,10,15,8.10
2017,05,23,10,16,9.60
2017,05,23,10,17,11.30
2017,05,23,10,18,6.40
2017,05,23,10,19,8.10
2017,05,23,10,20,8.10
2017,05,23,10,21,9.60
2017,05,23,10,22,6.40
2017,05,23,10,23,4.80
2017,05,23,10,24,3.20
2017,05,23,10,25,8.10
2017,05,23,10,26,9.60
2017,05,23,10,27,8.10
2017,05,23,10,28,9.60
2017,05,23,10,29,11.30
2017,05,23,10,30,14.50
2017,05,23,10,31,9.60
2017,05,23,10,32,8.10
2017,05,23,10,33,8.10
2017,05,23,10,34,9.60
2017,05,23,10,35,12.90
2017,05,23,10,36,14.50
2017,05,23,10,37,11.30
2017,05,23,10,38,16.10
2017,05,23,10,39,14.50
2017,05,23,10,40,17.70
2017,05,23,10,41,14.50
2017,05,23,10,42,8.10
2017,05,23,10,43,9.60
2017,05,23,10,44,11.30
2017,05,23,10,45,11.30
2017,05,23,10,46,11.30
2017,05,23,10,47,9.60
2017,05,23,10,48,11.30
2017,05,23,10,49,6.40
2017,05,23,10,50,4.80
2017,05,23,10,51,8.10
2017,05,23,10,52,8.10
2017,05,23,10,53,11.30
2017,05,23,10,54,8.10
2017,05,23,10,55,8.10
2017,05,23,10,56,9.60
2017,05,23,10,57,11.30
2017,05,23,10,58,11.30
2017,05,23,10,59,9.60
2017,05,23,11,00,8.10
2017,05,23,11,01,6.40
2017,05,23,11,02,8.10
2017,05,23,11,03,8.10
2017,05,23,11,04,9.60
2017,05,23,11,05,8.10
2017,05,23,11,06,8.10
2017,05,23,11,07,6.40
2017,05,23,11,08,6.40
2017,05,23,11,09,8.10
2017,05,23,11,10,6.40
2017,05,23,11,11,4.80
2017,05,23,11,12,6.40
2017,05,23,11,13,8.10
2017,05,23,11,14,8.10
2017,05,23,11,15,11.30
2017,05,23,11,16,8.10
2017,05,23,11,17,9.60
2017,05,23,11,18,11.30
2017,05,23,11,19,9.60
2017,05,23,11,20,9.60
2017,05,23,11,21,12.90
2017,05,23,11,22,11.30
2017,05,23,11,23,9.60
2017,05,23,11,24,9.60
2017,05,23,11,25,9.60
2017,05,23,11,26,6.40
2017,05,23,11,27,8.10
2017,05,23,11,28,9.60
2017,05,23,11,29,8.10
2017,05,23,11,30,8.10
2017,05,23,11,31,6.40
2017,05,23,11,32,8.10
2017,05,23,11,33,6.40
2017,05,23,11,34,9.60
2017,05,23,11,35,8.10
2017,05,23,11,36,8.10
2017,05,23,11,37,4.80
2017,05,23,11,38,9.60
2017,05,23,11,39,8.10
2017,05,23,11,40,8.10
2017,05,23,11,41,11.30
2017,05,23,11,42,9.60
2017,05,23,11,43,9.60
2017,05,23,11,44,8.10
2017,05,23,11,45,6.40
2017,05,23,11,46,11.30
2017,05,23,11,47,11.30
2017,05,23,11,48,6.40
2017,05,23,11,49,6.40
2017,05,23,11,50,6.40
2017,05,23,11,51,4.80
2017,05,23,11,52,4.80
2017,05,23,11,53,9.60
2017,05,23,11,54,11.30
2017,05,23,11,55,8.10
2017,05,23,11,56,4.80
2017,05,23,11,57,4.80
2017,05,23,11,58,8.10
2017,05,23,11,59,8.10
2017,05,23,12,00,6.40
2017,05,23,12,01,11.30
2017,05,23,12,02,14.50
2017,05,23,12,03,11.30
2017,05,23,12,04,11.30
2017,05,23,12,05,11.30
2017,05,23,12,06,11.30
2017,05,23,12,07,16.10
2017,05,23,12,08,9.60
2017,05,23,12,09,8.10
2017,05,23,12,10,16.10
2017,05,23,12,11,16.10
2017,05,23,12,12,11.30
2017,05,23,12,13,9.60
2017,05,23,12,14,11.30
2017,05,23,12,15,11.30
2017,05,23,12,16,9.60
2017,05,23,12,17,11.30
2017,05,23,12,18,14.50
2017,05,23,12,19,11.30
2017,05,23,12,20,9.60
2017,05,23,12,21,9.60
2017,05,23,12,22,14.50
2017,05,23,12,23,11.30
2017,05,23,12,24,14.50
2017,05,23,12,25,16.10
2017,05,23,12,26,11.30
2017,05,23,12,27,11.30
2017,05,23,12,28,9.60
2017,05,23,12,29,11.30
2017,05,23,12,30,11.30
2017,05,23,12,31,11.30
2017,05,23,12,32,9.60
2017,05,23,12,33,11.30
2017,05,23,12,34,9.60
2017,05,23,12,35,9.60
2017,05,23,12,36,11.30
2017,05,23,12,37,9.60
2017,05,23,12,38,9.60
2017,05,23,12,39,16.10
2017,05,23,12,40,8.10
2017,05,23,12,41,11.30
2017,05,23,12,42,14.50
2017,05,23,12,43,11.30
2017,05,23,12,44,11.30
2017,05,23,12,45,12.90
2017,05,23,12,46,8.10
2017,05,23,12,47,11.30
2017,05,23,12,48,8.10
2017,05,23,12,49,11.30
2017,05,23,12,50,9.60
2017,05,23,12,51,9.60
2017,05,23,12,52,11.30
2017,05,23,12,53,8.10
2017,05,23,12,54,9.60
2017,05,23,12,55,11.30
2017,05,23,12,56,9.60
2017,05,23,12,57,14.50
2017,05,23,12,58,9.60
2017,05,23,12,59,9.60
2017,05,23,13,00,8.10
2017,05,23,13,01,6.40
2017,05,23,13,02,8.10
2017,05,23,13,03,9.60
2017,05,23,13,04,11.30
2017,05,23,13,05,11.30
2017,05,23,13,06,9.60
2017,05,23,13,07,6.40
2017,05,23,13,08,8.10
2017,05,23,13,09,3.20
2017,05,23,13,10,9.60
2017,05,23,13,11,11.30
2017,05,23,13,12,9.60
2017,05,23,13,13,9.60
2017,05,23,13,14,9.60
2017,05,23,13,15,8.10
2017,05,23,13,16,9.60
2017,05,23,13,17,8.10
2017,05,23,13,18,11.30
2017,05,23,13,19,11.30
2017,05,23,13,20,11.30
2017,05,23,13,21,9.60
2017,05,23,13,22,8.10
2017,05,23,13,23,9.60
2017,05,23,13,24,8.10
2017,05,23,13,25,9.60
2017,05,23,13,26,9.60
2017,05,23,13,27,8.10
2017,05,23,13,28,11.30
2017,05,23,13,29,9.60
2017,05,23,13,30,11.30
2017,05,23,13,31,9.60
2017,05,23,13,32,11.30
2017,05,23,13,33,16.10
2017,05,23,13,34,11.30
2017,05,23,13,35,16.10
2017,05,23,13,36,16.10
2017,05,23,13,37,12.90
2017,05,23,13,38,8.10
2017,05,23,13,39,16.10
2017,05,23,13,40,17.70
2017,05,23,13,41,20.90
2017,05,23,13,42,19.30
2017,05,23,13,43,17.70
2017,05,23,13,44,11.30
2017,05,23,13,45,9.60
2017,05,23,13,46,9.60
2017,05,23,13,47,12.90
2017,05,23,13,48,25.70
2017,05,23,13,49,37.00
2017,05,23,13,50,33.80
2017,05,23,13,51,25.70
2017,05,23,13,52,30.60
2017,05,23,13,53,16.10
2017,05,23,13,54,22.50
2017,05,23,13,55,25.70
2017,05,23,13,56,25.70
2017,05,23,13,57,24.20
2017,05,23,13,58,27.40
2017,05,23,13,59,33.80
2017,05,23,14,00,24.20
2017,05,23,14,01,24.20
2017,05,23,14,02,30.60
2017,05,23,14,03,40.20
2017,05,23,14,04,30.60
2017,05,23,14,05,33.80
2017,05,23,14,06,35.40
2017,05,23,14,07,37.00
2017,05,23,14,08,33.80
2017,05,23,14,09,32.20
2017,05,23,14,10,35.40
2017,05,23,14,11,37.00
2017,05,23,14,12,29.00
2017,05,23,14,13,38.60
2017,05,23,14,14,30.60
2017,05,23,14,15,25.70
2017,05,23,14,16,24.20
2017,05,23,14,17,17.70
2017,05,23,14,18,37.00
2017,05,23,14,19,24.20
2017,05,23,14,20,29.00
2017,05,23,14,21,25.70
2017,05,23,14,22,29.00
2017,05,23,14,23,25.70
2017,05,23,14,24,27.40
2017,05,23,14,25,22.50
2017,05,23,14,26,25.70
2017,05,23,14,27,24.20
2017,05,23,14,28,27.40
2017,05,23,14,29,24.20
2017,05,23,14,30,29.00
2017,05,23,14,31,32.20
2017,05,23,14,32,27.40
2017,05,23,14,33,24.20
2017,05,23,14,34,32.20
2017,05,23,14,35,35.40
2017,05,23,14,36,37.00
2017,05,23,14,37,30.60
2017,05,23,14,38,17.70
2017,05,23,14,39,20.90
2017,05,23,14,40,30.60
2017,05,23,14,41,33.80
2017,05,23,14,42,29.00
2017,05,23,14,43,19.30
2017,05,23,14,44,22.50
2017,05,23,14,45,29.00
2017,05,23,14,46,27.40
2017,05,23,14,47,33.80
2017,05,23,14,48,33.80
2017,05,23,14,49,33.80
2017,05,23,14,50,35.40
2017,05,23,14,51,40.20
2017,05,23,14,52,29.00
2017,05,23,14,53,24.20
2017,05,23,14,54,25.70
2017,05,23,14,55,29.00
2017,05,23,14,56,27.40
2017,05,23,14,57,37.00
2017,05,23,14,58,25.70
2017,05,23,14,59,29.00
2017,05,23,15,00,24.20
2017,05,23,15,01,24.20
2017,05,23,15,02,29.00
2017,05,23,15,03,19.30
2017,05,23,15,04,22.50
2017,05,23,15,05,30.60
2017,05,23,15,06,27.40
2017,05,23,15,07,22.50
2017,05,23,15,08,20.90
2017,05,23,15,09,20.90
2017,05,23,15,10,20.90
2017,05,23,15,11,25.70
2017,05,23,15,12,19.30
2017,05,23,15,13,24.20
2017,05,23,15,14,24.20
2017,05,23,15,15,22.50
2017,05,23,15,16,25.70
2017,05,23,15,17,20.90
2017,05,23,15,18,19.30
2017,05,23,15,19,19.30
2017,05,23,15,20,19.30
2017,05,23,15,21,19.30
2017,05,23,15,22,22.50
2017,05,23,15,23,25.70
2017,05,23,15,24,20.90
2017,05,23,15,25,20.90
2017,05,23,15,26,17.70
2017,05,23,15,27,17.70
2017,05,23,15,28,20.90
2017,05,23,15,29,22.50
2017,05,23,15,30,24.20
2017,05,23,15,31,24.20
2017,05,23,15,32,25.70
2017,05,23,15,33,25.70
2017,05,23,15,34,27.40
2017,05,23,15,35,17.70
2017,05,23,15,36,17.70
2017,05,23,15,37,11.30
2017,05,23,15,38,24.20
2017,05,23,15,39,25.70
2017,05,23,15,40,25.70
2017,05,23,15,41,20.90
2017,05,23,15,42,16.10
2017,05,23,15,43,24.20
2017,05,23,15,44,25.70
2017,05,23,15,45,22.50
2017,05,23,15,46,25.70
2017,05,23,15,47,19.30
2017,05,23,15,48,22.50
2017,05,23,15,49,27.40
2017,05,23,15,50,22.50
2017,05,23,15,51,32.20
2017,05,23,15,52,29.00
2017,05,23,15,53,30.60
2017,05,23,15,54,29.00
2017,05,23,15,55,22.50
2017,05,23,15,56,25.70
2017,05,23,15,57,30.60
2017,05,23,15,58,27.40
2017,05,23,15,59,33.80
2017,05,23,16,00,33.80
2017,05,23,16,01,25.70
2017,05,23,16,02,29.00
2017,05,23,16,03,27.40
2017,05,23,16,04,38.60
2017,05,23,16,05,45.10
2017,05,23,16,06,35.40
2017,05,23,16,07,37.00
2017,05,23,16,08,32.20
2017,05,23,16,09,40.20
2017,05,23,16,10,32.20
2017,05,23,16,11,40.20
2017,05,23,16,12,41.80
2017,05,23,16,13,41.80
2017,05,23,16,14,41.80
2017,05,23,16,15,38.60
2017,05,23,16,16,30.60
2017,05,23,16,17,35.40
2017,05,23,16,18,35.40
2017,05,23,16,19,30.60
2017,05,23,16,20,32.20
2017,05,23,16,21,30.60
2017,05,23,16,22,33.80
2017,05,23,16,23,33.80
2017,05,23,16,24,30.60
2017,05,23,16,25,49.90
2017,05,23,16,26,41.80
2017,05,23,16,27,29.00
2017,05,23,16,28,30.60
2017,05,23,16,29,43.50
2017,05,23,16,30,41.80
2017,05,23,16,31,46.70
2017,05,23,16,32,43.50
2017,05,23,16,33,35.40
2017,05,23,16,34,30.60
2017,05,23,16,35,29.00
2017,05,23,16,36,27.40
2017,05,23,16,37,33.80
2017,05,23,16,38,32.20
2017,05,23,16,39,30.60
2017,05,23,16,40,37.00
2017,05,23,16,41,30.60
2017,05,23,16,42,27.40
2017,05,23,16,43,37.00
2017,05,23,16,44,25.70
2017,05,23,16,45,32.20
2017,05,23,16,46,24.20
2017,05,23,16,47,30.60
2017,05,23,16,48,32.20
2017,05,23,16,49,29.00
2017,05,23,16,50,20.90
2017,05,23,16,51,29.00
2017,05,23,16,52,29.00
2017,05,23,16,53,25.70
2017,05,23,16,54,38.60
2017,05,23,16,55,33.80
2017,05,23,16,56,29.00
2017,05,23,16,57,37.00
2017,05,23,16,58,29.00
2017,05,23,16,59,29.00
2017,05,23,17,00,30.60
2017,05,23,17,01,22.50
2017,05,23,17,02,30.60
2017,05,23,17,03,37.00
2017,05,23,17,04,25.70
2017,05,23,17,05,27.40
2017,05,23,17,06,24.20
2017,05,23,17,07,24.20
2017,05,23,17,08,41.80
2017,05,23,17,09,38.60
2017,05,23,17,10,33.80
2017,05,23,17,11,49.90
2017,05,23,17,12,40.20
2017,05,23,17,13,37.00
2017,05,23,17,14,38.60
2017,05,23,17,15,32.20
2017,05,23,17,16,45.10
2017,05,23,17,17,37.00
2017,05,23,17,18,32.20
2017,05,23,17,19,33.80
2017,05,23,17,20,45.10
2017,05,23,17,21,43.50
2017,05,23,17,22,32.20
2017,05,23,17,23,27.40
2017,05,23,17,24,35.40
2017,05,23,17,25,30.60
2017,05,23,17,26,33.80
2017,05,23,17,27,37.00
2017,05,23,17,28,38.60
2017,05,23,17,29,32.20
2017,05,23,17,30,38.60
2017,05,23,17,31,33.80
2017,05,23,17,32,35.40
2017,05,23,17,33,38.60
2017,05,23,17,34,37.00
2017,05,23,17,35,33.80
2017,05,23,17,36,29.00
2017,05,23,17,37,41.80
2017,05,23,17,38,33.80
2017,05,23,17,39,43.50
2017,05,23,17,40,33.80
2017,05,23,17,41,51.50
2017,05,23,17,42,46.70
2017,05,23,17,43,37.00
2017,05,23,17,44,35.40
2017,05,23,17,45,35.40
2017,05,23,17,46,37.00
2017,05,23,17,47,35.40
2017,05,23,17,48,29.00
2017,05,23,17,49,32.20
2017,05,23,17,50,38.60
2017,05,23,17,51,37.00
2017,05,23,17,52,27.40
2017,05,23,17,53,41.80
2017,05,23,17,54,37.00
2017,05,23,17,55,38.60
2017,05,23,17,56,27.40
2017,05,23,17,57,37.00
2017,05,23,17,58,38.60
2017,05,23,17,59,30.60
2017,05,23,18,00,40.20
2017,05,23,18,01,37.00
2017,05,23,18,02,30.60
2017,05,23,18,03,37.00
2017,05,23,18,04,29.00
2017,05,23,18,05,25.70
2017,05,23,18,06,41.80
2017,05,23,18,07,35.40
2017,05,23,18,08,40.20
2017,05,23,18,09,33.80
2017,05,23,18,10,27.40
2017,05,23,18,11,20.90
2017,05,23,18,12,30.60
2017,05,23,18,13,33.80
2017,05,23,18,14,37.00
2017,05,23,18,15,33.80